Home   Weather   Perpignan   Past weeks

Flag for France Past Weather in Perpignan, Languedoc-Roussillon, France — Yesterday and Last 2 Weeks

Now
32 °F

Clear.


Feels Like: 21 °F
Forecast: 26 / 46 °F
Wind: 16 mph from Northwest

Location: Perpignan Airport

Current Time: Jan 18, 2017 at 7:24:51 am

Latest Report: Jan 18, 2017 at 7:00 am


Visibility: 10 mi

Pressure: 30.15 "Hg

Humidity: 55%

Dew Point: 18 °F

Location of PerpignanLocation

Past Weather in Perpignan — Graph

°F

Perpignan Temperature Yesterday

Maximum temperature yesterday: 39 °F (at 12:00 am)
Minimum temperature yesterday: 34 °F (at 7:00 am)
Average temperature yesterday: 36 °F

High & Low Weather Summary for the Past Weeks

 TemperatureHumidityPressure
High64 °F (Jan 12, 2:00 pm)88% (Jan 12, 8:00 pm)30.42 "Hg (Jan 12, 8:00 pm)
Low32 °F (Jan 7, 2:30 am)11% (Jan 7, 4:30 pm)29.83 "Hg (Jan 10, 1:00 pm)
Average47 °F50%30.17 "Hg
* Reported Jan 3 6:00 am — Jan 18 6:30 am, Perpignan, Weather by CustomWeather, © 2017

Note: Actual official high and low records may vary slightly from our data, if they occured in-between our weather recording intervals... More about our weather records

Advertising

Perpignan Weather History for the Previous 24 Hours

Scroll right to see more
 ConditionsComfort  
Time TempWeatherWind HumidityBarometerVisibility
6:30 am
Wed, Jan 18
32 °FClear.17 mph55%30.15 "Hg10 mi
6:00 am32 °FClear.16 mph55%30.15 "Hg10 mi
5:30 am34 °FPassing clouds.18 mph48%30.15 "HgN/A
5:00 am34 °FClear.18 mph48%30.15 "Hg10 mi
4:30 am34 °FClear.20 mph48%30.15 "Hg10 mi
4:00 am34 °FClear.18 mph48%30.15 "Hg10 mi
3:30 am34 °FClear.18 mph48%30.18 "Hg10 mi
3:00 am34 °FPassing clouds.13 mph48%30.18 "HgN/A
2:30 am34 °FClear.14 mph48%30.18 "Hg10 mi
2:00 am34 °FPassing clouds.14 mph51%30.18 "HgN/A
1:30 am34 °FClear.15 mph51%30.18 "Hg10 mi
1:00 am34 °FPassing clouds.14 mph51%30.18 "HgN/A
12:30 am34 °FPassing clouds.18 mph51%30.18 "HgN/A
12:00 am34 °FPassing clouds.10 mph51%30.18 "HgN/A
11:30 pm
Tue, Jan 17
34 °FClear.12 mph51%30.18 "Hg10 mi
11:00 pm36 °FPassing clouds.17 mph48%30.18 "HgN/A
10:30 pm36 °FPassing clouds.16 mph48%30.18 "HgN/A
10:00 pm37 °FPassing clouds.22 mph45%30.15 "HgN/A
9:30 pm37 °FPassing clouds.17 mph45%30.15 "HgN/A
9:00 pm37 °FClear.20 mph45%30.15 "Hg10 mi
8:30 pm36 °FPassing clouds.22 mph48%30.15 "HgN/A
8:00 pm36 °FClear.20 mph48%30.12 "Hg10 mi
7:30 pm36 °FClear.20 mph48%30.12 "Hg10 mi
7:00 pm36 °FClear.24 mph48%30.12 "Hg10 mi
6:30 pm36 °FClear.23 mph48%30.12 "Hg10 mi
6:00 pm36 °FClear.22 mph48%30.12 "Hg10 mi
5:30 pm37 °FSunny.26 mph45%30.09 "Hg10 mi
5:00 pm37 °FSunny.25 mph41%30.09 "Hg10 mi
4:30 pm37 °FPassing clouds.23 mph41%30.09 "HgN/A
4:00 pm37 °FSunny.28 mph41%30.09 "Hg10 mi
3:30 pm37 °FPassing clouds.29 mph41%30.09 "HgN/A
3:00 pm37 °FPassing clouds.30 mph38%30.09 "HgN/A
2:30 pm37 °FSunny.30 mph41%30.09 "Hg10 mi
2:00 pm37 °FSunny.26 mph45%30.09 "Hg10 mi
1:30 pm37 °FSunny.29 mph45%30.12 "Hg10 mi
1:00 pm37 °FSunny.29 mph45%30.12 "Hg10 mi
12:30 pm37 °FSunny.28 mph45%30.12 "Hg10 mi
12:00 pm37 °FSunny.28 mph45%30.12 "Hg10 mi
11:30 am37 °FSunny.24 mph45%30.12 "Hg10 mi
11:00 am36 °FSunny.25 mph48%30.12 "Hg10 mi
10:30 am36 °FSunny.25 mph48%30.12 "Hg10 mi
10:00 am36 °FSunny.25 mph48%30.12 "Hg10 mi
9:30 am34 °FSunny.22 mph51%30.09 "Hg10 mi
9:00 am34 °FSunny.22 mph51%30.09 "Hg10 mi
8:30 am34 °FSunny.21 mph51%30.09 "Hg10 mi
8:00 am34 °FClear.24 mph51%30.07 "Hg10 mi
7:30 am36 °FClear.23 mph44%30.07 "Hg10 mi
7:00 am34 °FClear.20 mph51%30.07 "Hg10 mi
Weather by CustomWeather, © 2017

See weather overviewHow to use our weather pages